SBONWEB Weather Reports


Display with metric or nautical units.
time (UTC)temp
F
wind
direction
speed
MPH
gust
MPH
rain 1hr
in
rain 24hr
in
rain mn
in
humidity
%
barometer
mb
20260504050004 53 360 1.0 2.0 0.00 0.00 0.00 71 1017.3
20260504045403 53 360 1.0 2.0 0.00 0.00 0.00 70 1017.2
20260504044504 52 359 1.0 3.0 0.00 0.00 0.00 71 1017.2
20260504043604 52 360 1.0 2.0 0.00 0.00 0.00 71 1017.1
20260504042703 52 360 1.0 3.0 0.00 0.00 0.00 71 1016.9
20260504041804 51 360 0.0 3.0 0.00 0.00 0.00 71 1017.1
20260504040903 51 0 0.0 0.0 0.00 0.00 0.00 72 1017.1
20260504040004 51 0 0.0 0.0 0.00 0.00 0.00 71 1017.1
20260504035403 51 0 0.0 0.0 0.00 0.00 0.00 70 1017.0
20260504034503 52 0 0.0 0.0 0.00 0.00 0.00 70 1017.1
20260504033603 52 0 0.0 0.0 0.00 0.00 0.00 68 1017.1
20260504032703 53 0 0.0 0.0 0.00 0.00 0.00 68 1016.9
20260504032017 52 0 0.0 0.0 0.00 0.00 0.00 68 1016.9
20260504030904 52 0 0.0 0.0 0.00 0.00 0.00 68 1017.1
20260504030003 52 0 0.0 0.0 0.00 0.00 0.00 69 1017.0
20260504025403 52 0 0.0 0.0 0.00 0.00 0.00 68 1017.1
20260504024504 52 0 0.0 0.0 0.00 0.00 0.00 67 1017.2
20260504023603 52 0 0.0 0.0 0.00 0.00 0.00 67 1017.2
20260504022703 52 0 0.0 0.0 0.00 0.00 0.00 68 1017.2
20260504021803 52 0 0.0 0.0 0.00 0.00 0.00 67 1017.2
20260504020903 53 0 0.0 0.0 0.00 0.00 0.00 68 1017.1
20260504020003 53 0 0.0 0.0 0.00 0.00 0.00 67 1017.1
20260504015403 54 0 0.0 0.0 0.00 0.00 0.00 67 1017.2
20260504014503 54 0 0.0 0.0 0.00 0.00 0.00 67 1017.2
20260504013603 55 0 0.0 0.0 0.00 0.00 0.00 66 1017.3
20260504012703 55 0 0.0 0.0 0.00 0.00 0.00 59 1017.2
20260504011803 56 0 0.0 0.0 0.00 0.00 0.00 61 1017.2
20260504010903 56 0 0.0 0.0 0.00 0.00 0.00 63 1017.2
20260504010003 56 0 0.0 0.0 0.00 0.00 0.00 63 1017.3
20260504005403 57 0 0.0 0.0 0.00 0.00 0.00 64 1017.2
20260504004503 57 0 0.0 0.0 0.00 0.00 0.00 64 1017.3
20260504003603 57 0 0.0 0.0 0.00 0.00 0.00 66 1017.4
20260504002703 56 0 0.0 0.0 0.00 0.00 0.00 65 1017.5
20260504001803 56 217 0.0 3.0 0.00 0.00 0.00 68 1017.6
20260504000903 56 222 0.0 1.0 0.00 0.00 0.00 68 1017.7
20260504000003 57 0 0.0 0.0 0.00 0.00 0.00 69 1017.7
20260503235618 57 0 0.0 0.0 0.00 0.00 0.00 69 1017.7
20260503234503 57 0 0.0 0.0 0.00 0.00 0.00 69 1017.9
20260503233603 57 0 0.0 0.0 0.00 0.00 0.00 69 1018.0
20260503232703 57 0 0.0 0.0 0.00 0.00 0.00 69 1018.0
20260503231803 57 0 0.0 0.0 0.00 0.00 0.00 69 1018.0
20260503230903 57 0 0.0 0.0 0.00 0.00 0.00 69 1018.1
20260503230003 57 0 0.0 0.0 0.00 0.00 0.00 70 1018.2
20260503225403 57 0 0.0 0.0 0.00 0.00 0.00 71 1018.1
20260503224503 56 204 0.0 1.0 0.00 0.00 0.00 71 1018.2
20260503223603 56 203 0.0 4.0 0.00 0.00 0.00 70 1018.2
20260503222918 56 209 0.0 1.0 0.00 0.00 0.00 70 1018.2
20260503221803 57 209 0.0 1.0 0.00 0.00 0.00 68 1018.2
20260503220903 58 209 1.0 1.0 0.00 0.00 0.00 67 1018.1
20260503220218 58 205 1.0 3.0 0.00 0.00 0.00 66 1018.0
20260503215403 58 194 1.0 3.0 0.00 0.00 0.00 65 1018.1
20260503214503 58 190 1.0 2.0 0.00 0.00 0.00 65 1018.1
20260503213603 59 181 1.0 3.0 0.00 0.00 0.00 65 1018.0
20260503212703 59 201 1.0 2.0 0.00 0.00 0.00 64 1017.9
20260503210903 59 184 1.0 3.0 0.00 0.00 0.00 62 1017.9
20260503210003 59 187 1.0 4.0 0.00 0.00 0.00 62 1017.9
20260503205403 59 188 1.0 4.0 0.00 0.00 0.00 62 1017.9
20260503204719 59 183 1.0 3.0 0.00 0.00 0.00 61 1017.9
20260503203603 59 162 0.0 4.0 0.00 0.00 0.00 61 1017.9
20260503202703 59 154 0.0 2.0 0.00 0.00 0.00 61 1017.9
20260503201804 60 0 0.0 0.0 0.00 0.00 0.00 61 1017.7
20260503200903 59 0 0.0 0.0 0.00 0.00 0.00 59 1017.7
20260503200003 59 176 1.0 1.0 0.00 0.00 0.00 62 1017.7
20260503195403 59 176 1.0 2.0 0.00 0.00 0.00 65 1017.7
20260503194504 59 176 0.0 2.0 0.00 0.00 0.00 65 1017.6
20260503193818 60 176 1.0 1.0 0.00 0.00 0.00 63 1017.5
20260503192703 61 157 0.0 2.0 0.00 0.00 0.00 60 1017.5
20260503191803 63 134 0.0 1.0 0.00 0.00 0.00 58 1017.3
20260503190903 63 134 0.0 1.0 0.00 0.00 0.00 56 1017.2
20260503190003 64 133 0.0 2.0 0.00 0.00 0.00 55 1017.2
20260503185617 64 134 0.0 2.0 0.00 0.00 0.00 54 1017.1
20260503184718 64 128 2.0 5.0 0.00 0.00 0.00 57 1017.2
20260503183603 64 142 0.0 8.0 0.00 0.00 0.00 55 1017.2
20260503182703 64 194 0.0 2.0 0.00 0.00 0.00 60 1017.1
20260503182018 65 194 0.0 2.0 0.00 0.00 0.00 58 1017.0
20260503180903 65 194 0.0 1.0 0.00 0.00 0.00 59 1017.1
20260503180003 66 193 0.0 2.0 0.00 0.00 0.00 59 1017.0
20260503175616 66 193 1.0 2.0 0.00 0.00 0.00 59 1017.0
20260503174503 67 191 1.0 2.0 0.00 0.00 0.00 58 1017.0
20260503173603 68 181 0.0 2.0 0.00 0.00 0.00 54 1016.9
20260503172703 68 180 0.0 1.0 0.00 0.00 0.00 58 1017.0
20260503171803 68 180 1.0 2.0 0.00 0.00 0.00 54 1017.1
20260503171117 69 180 0.0 2.0 0.00 0.00 0.00 50 1017.1
20260503170218 69 180 0.0 2.0 0.00 0.00 0.00 48 1017.0
20260503150903 70 146 1.0 3.0 0.00 0.00 0.00 45 1017.6
20260503131118 70 161 2.0 5.0 0.00 0.00 0.00 45 1018.8
20260503100218 68 127 4.0 8.0 0.00 0.00 0.00 44 1019.3
20260503080903 65 101 3.0 9.0 0.00 0.00 0.00 53 1019.6
20260503072703 63 43 3.0 6.0 0.00 0.00 0.00 58 1019.6
20260503072018 62 27 4.0 8.0 0.00 0.00 0.00 58 1019.6
20260503070903 62 25 5.0 10.0 0.00 0.00 0.00 61 1019.6